This is the latest recevied weather packets stored in our database for station/object KJ6APE. If no packets are shown the sender has not sent any weather packets the latest 10 day(s).
| Time | Temp. | Humidity | Pressure | Rain* | Wind** | Luminosity | Snow |
|---|---|---|---|---|---|---|---|
| 1777482297 | 20.56° C | 49% | 1018.8 hPa | 0 mm | - | 625 W/m² | - |
| 1777481995 | 21.11° C | 50% | 1018.7 hPa | 0 mm | - | 607 W/m² | - |
| 1777481693 | 20.56° C | 51% | 1018.9 hPa | 0 mm | - | 589 W/m² | - |
| 1777481389 | 20.56° C | 50% | 1018.9 hPa | 0 mm | - | 572 W/m² | - |
| 1777481086 | 20.56° C | 50% | 1019 hPa | 0 mm | - | 552 W/m² | - |
| 1777480782 | 20° C | 52% | 1019.1 hPa | 0 mm | - | 532 W/m² | - |
| 1777480479 | 20° C | 53% | 1019 hPa | 0 mm | - | 513 W/m² | - |
| 1777480175 | 19.44° C | 56% | 1019.1 hPa | 0 mm | - | 493 W/m² | - |
| 1777479872 | 19.44° C | 56% | 1019 hPa | 0 mm | - | 472 W/m² | - |
| 1777479569 | 18.89° C | 56% | 1019 hPa | 0 mm | - | 452 W/m² | - |
| 1777479266 | 18.89° C | 56% | 1018.9 hPa | 0 mm | - | 433 W/m² | - |
| 1777478963 | 18.33° C | 59% | 1019.2 hPa | 0 mm | - | 411 W/m² | - |
| 1777478660 | 17.22° C | 61% | 1019.1 hPa | 0 mm | - | 390 W/m² | - |
| 1777478356 | 17.78° C | 60% | 1019.1 hPa | 0 mm | - | 370 W/m² | - |
| 1777478053 | 17.78° C | 61% | 1019.2 hPa | 0 mm | - | 350 W/m² | - |
| 1777477749 | 17.22° C | 63% | 1019.3 hPa | 0 mm | - | 331 W/m² | - |
| 1777477445 | 17.22° C | 62% | 1019.3 hPa | 0 mm | - | 313 W/m² | - |
| 1777477141 | 17.78° C | 61% | 1019.4 hPa | 0 mm | - | 295 W/m² | - |
| 1777476838 | 17.78° C | 60% | 1019.4 hPa | 0 mm | - | 277 W/m² | - |
| 1777476536 | 17.22° C | 63% | 1019.2 hPa | 0 mm | - | 258 W/m² | - |
| 1777476232 | 17.22° C | 62% | 1019.2 hPa | 0 mm | - | 238 W/m² | - |
| 1777475927 | 16.67° C | 64% | 1019.3 hPa | 0 mm | - | 220 W/m² | - |
| 1777475624 | 15.56° C | 66% | 1019.3 hPa | 0 mm | - | 201 W/m² | - |
| 1777475321 | 15.56° C | 68% | 1019.4 hPa | 0 mm | - | 178 W/m² | - |
| 1777475015 | 15.56° C | 68% | 1019.2 hPa | 0 mm | - | 143 W/m² | - |
* Rain latest hour (hover to see other rain measurements)
** Current wind speed in m/s (hover to see current wind gust speed)